TimeCDT,TemperatureF,Dew PointF,Humidity,Sea Level PressureIn,VisibilityMPH,Wind Direction,Wind SpeedMPH,Gust SpeedMPH,PrecipitationIn,Events,Conditions,WindDirDegrees,DateUTC
12:53 AM,44.1,37.9,79,29.96,10.0,SSW,5.8,-,N/A,,Clear,200,2012-11-02 05:53:00
1:53 AM,42.1,37.0,82,29.95,10.0,SSW,4.6,-,N/A,,Clear,200,2012-11-02 06:53:00
2:53 AM,43.0,37.9,82,29.95,10.0,SSW,3.5,-,N/A,,Clear,200,2012-11-02 07:53:00
3:53 AM,46.0,39.0,76,29.94,10.0,SSW,5.8,-,N/A,,Clear,210,2012-11-02 08:53:00
4:53 AM,46.9,39.0,74,29.93,10.0,SSW,6.9,-,N/A,,Clear,210,2012-11-02 09:53:00
5:53 AM,48.0,39.9,74,29.94,10.0,SW,6.9,-,N/A,,Clear,220,2012-11-02 10:53:00
6:53 AM,48.0,41.0,77,29.96,10.0,WSW,5.8,-,N/A,,Clear,240,2012-11-02 11:53:00
7:53 AM,48.9,42.1,77,29.99,10.0,West,3.5,-,N/A,,Clear,270,2012-11-02 12:53:00
8:53 AM,54.0,45.0,72,30.01,10.0,West,6.9,-,N/A,,Clear,270,2012-11-02 13:53:00
9:53 AM,57.9,44.1,60,30.02,10.0,NW,6.9,-,N/A,,Clear,320,2012-11-02 14:53:00
10:53 AM,61.0,45.0,56,30.03,10.0,North,4.6,-,N/A,,Clear,350,2012-11-02 15:53:00
11:53 AM,64.9,44.1,47,30.03,10.0,North,9.2,-,N/A,,Clear,10,2012-11-02 16:53:00
12:53 PM,68.0,43.0,40,30.01,10.0,NNE,5.8,-,N/A,,Clear,20,2012-11-02 17:53:00
1:53 PM,71.1,44.1,38,29.98,10.0,NNE,6.9,-,N/A,,Clear,20,2012-11-02 18:53:00
2:53 PM,72.0,43.0,35,29.98,10.0,North,5.8,-,N/A,,Clear,10,2012-11-02 19:53:00
3:53 PM,68.0,43.0,40,29.99,10.0,North,5.8,-,N/A,,Clear,350,2012-11-02 20:53:00
4:53 PM,70.0,44.1,39,29.99,10.0,NNE,6.9,-,N/A,,Clear,20,2012-11-02 21:53:00
5:53 PM,64.9,43.0,45,29.99,10.0,NNE,3.5,-,N/A,,Clear,20,2012-11-02 22:53:00
6:53 PM,59.0,44.1,58,30.00,10.0,Calm,Calm,-,N/A,,Clear,0,2012-11-02 23:53:00
7:53 PM,52.0,44.1,74,30.01,10.0,Calm,Calm,-,N/A,,Clear,0,2012-11-03 00:53:00
8:53 PM,48.9,44.1,83,30.02,10.0,Calm,Calm,-,N/A,,Clear,0,2012-11-03 01:53:00
9:53 PM,48.0,43.0,83,30.01,10.0,Calm,Calm,-,N/A,,Clear,0,2012-11-03 02:53:00
10:53 PM,48.0,42.1,80,30.01,10.0,Calm,Calm,-,N/A,,Clear,0,2012-11-03 03:53:00
11:53 PM,46.9,41.0,80,30.01,10.0,Calm,Calm,-,N/A,,Clear,0,2012-11-03 04:53:00